Location: DARK SKY Beskydy - Park tmavé oblohy, www.darkskybeskydy.cz
(49.4926°N, 18.5016°E)
Time: 22:44:05
(UTC+02:00)

ACS3 Solar Sail - Pass Details

Date: 25 June 2024
Orbit: 992 x 1023 km, 97.4° (Epoch: 12 July)

Event Time Altitude Azimuth Distance (km) Brightness Sun altitude
Exits shadow 21:29:21 - 148° (SSE) 3,237 6.9 -4.8°
Reaches altitude 10° 21:30:38 10° 145° (SE) 2,758 6.5 -4.9°
Maximum altitude 21:36:40 56° 70° (ENE) 1,177 5.2 -5.6°
Drops below altitude 10° 21:42:43 10° 354° (N) 2,767 8.1 -6.2°
Sets 21:45:14 0° 351° (N) 3,720 9.0 -6.5°
